RYR3UM LICC-LIRN

Flight info

Callsign RYR3UM
Flight time 0h 50m
Altitude 34000
Route BUDIN DCT DIRED DCT NAXES/N0332F180 T92 SOR
Aircraft B738/M-SDE3FGIJ1LRWY/SB1

Departure

Time 2026-04-30 13:09
Airport Catania-Fontanarossa Airport (LICC)

Arrival

Time 2026-04-30 13:59
Airport Naples International Airport (LIRN)
Time Latitude Longitude Altitude Speed Heading
2026-04-30 12:55 37.46982 15.06413 29 ft 0 kts 31°
2026-04-30 13:00 37.46969 15.06403 29 ft 2 kts 31°
2026-04-30 13:00 37.46955 15.06393 29 ft 2 kts 31°
2026-04-30 13:00 37.46941 15.06382 29 ft 2 kts 23°
2026-04-30 13:00 37.46925 15.06378 28 ft 2 kts 323°
2026-04-30 13:01 37.46919 15.06386 30 ft 1 kts 301°
2026-04-30 13:03 37.46914 15.06379 30 ft 1 kts 220°
2026-04-30 13:03 37.46875 15.06375 29 ft 7 kts 180°
2026-04-30 13:03 37.46829 15.06359 32 ft 7 kts 223°
2026-04-30 13:04 37.46814 15.06288 35 ft 9 kts 262°
2026-04-30 13:04 37.46808 15.06208 37 ft 9 kts 264°
2026-04-30 13:04 37.46802 15.06130 38 ft 9 kts 264°
2026-04-30 13:04 37.46795 15.06042 39 ft 10 kts 264°
2026-04-30 13:05 37.46787 15.05953 40 ft 12 kts 264°
2026-04-30 13:05 37.46777 15.05838 41 ft 13 kts 264°
2026-04-30 13:05 37.46768 15.05725 43 ft 13 kts 264°
2026-04-30 13:06 37.46729 15.05497 44 ft 15 kts 227°
2026-04-30 13:06 37.46682 15.05465 43 ft 0 kts 186°
2026-04-30 13:08 37.46674 15.05465 45 ft 5 kts 182°
2026-04-30 13:08 37.46607 15.05480 43 ft 14 kts 157°
2026-04-30 13:08 37.46595 15.05645 40 ft 35 kts 84°
2026-04-30 13:08 37.46652 15.06315 39 ft 115 kts 84°
2026-04-30 13:09 37.46756 15.07574 127 ft 171 kts 83°
2026-04-30 13:09 37.46964 15.09158 762 ft 193 kts 78°
2026-04-30 13:09 37.47262 15.10894 1473 ft 208 kts 79°
2026-04-30 13:09 37.47514 15.12733 2094 ft 217 kts 82°
2026-04-30 13:10 37.47738 15.14620 2715 ft 225 kts 81°
2026-04-30 13:10 37.47982 15.16611 3319 ft 234 kts 80°
2026-04-30 13:10 37.48246 15.18663 3943 ft 241 kts 79°
2026-04-30 13:10 37.48527 15.20768 4579 ft 247 kts 79°
2026-04-30 13:11 37.48820 15.22923 5209 ft 252 kts 79°
2026-04-30 13:11 37.49122 15.25130 5817 ft 260 kts 79°
2026-04-30 13:11 37.49468 15.27415 6432 ft 271 kts 71°
2026-04-30 13:11 37.50439 15.29448 7033 ft 275 kts 42°
2026-04-30 13:12 37.51989 15.30884 7685 ft 279 kts 30°
2026-04-30 13:12 37.53643 15.32166 8297 ft 280 kts 28°
2026-04-30 13:12 37.55319 15.33438 8927 ft 282 kts 28°
2026-04-30 13:13 37.58705 15.36033 10193 ft 287 kts 28°
2026-04-30 13:13 37.60413 15.37358 10796 ft 290 kts 28°
2026-04-30 13:13 37.63885 15.40070 12041 ft 300 kts 27°
2026-04-30 13:14 37.65678 15.41476 12687 ft 307 kts 27°
2026-04-30 13:14 37.67513 15.42917 13344 ft 314 kts 27°
2026-04-30 13:14 37.71439 15.45407 14568 ft 317 kts
2026-04-30 13:15 37.73612 15.45340 15194 ft 312 kts 342°
2026-04-30 13:15 37.77709 15.43451 16456 ft 318 kts 334°
2026-04-30 13:15 37.79772 15.42389 17106 ft 322 kts 334°
2026-04-30 13:16 37.81860 15.41311 17762 ft 326 kts 335°
2026-04-30 13:16 37.83974 15.40228 18425 ft 330 kts 335°
2026-04-30 13:16 37.86113 15.39139 19000 ft 333 kts 335°
2026-04-30 13:17 37.90445 15.36950 20205 ft 337 kts 336°
2026-04-30 13:17 37.92632 15.35849 20820 ft 339 kts 336°
2026-04-30 13:17 37.96288 15.34011 21876 ft 341 kts 336°
2026-04-30 13:18 37.99236 15.32528 22753 ft 341 kts 336°
2026-04-30 13:18 38.02907 15.30682 23832 ft 341 kts 336°
2026-04-30 13:18 38.05107 15.29574 24410 ft 339 kts 336°
2026-04-30 13:19 38.07304 15.28467 24989 ft 339 kts 336°
2026-04-30 13:19 38.09483 15.27368 25575 ft 336 kts 336°
2026-04-30 13:19 38.11649 15.26276 26175 ft 333 kts 336°
2026-04-30 13:19 38.13793 15.25194 26819 ft 330 kts 336°
2026-04-30 13:20 38.15920 15.24120 27443 ft 327 kts 335°
2026-04-30 13:20 38.18024 15.23057 28082 ft 323 kts 335°
2026-04-30 13:20 38.20103 15.22005 28739 ft 318 kts 335°
2026-04-30 13:20 38.22142 15.20974 29375 ft 314 kts 335°
2026-04-30 13:21 38.24195 15.19931 29600 ft 321 kts 335°
2026-04-30 13:21 38.26284 15.18871 29910 ft 326 kts 335°
2026-04-30 13:21 38.28404 15.17794 30193 ft 330 kts 335°
2026-04-30 13:22 38.32729 15.15597 30702 ft 339 kts 335°
2026-04-30 13:22 38.34904 15.14492 30950 ft 343 kts 335°
2026-04-30 13:22 38.39389 15.12211 31471 ft 350 kts 335°
2026-04-30 13:23 38.41664 15.11053 31720 ft 354 kts 334°
2026-04-30 13:23 38.46279 15.08702 32243 ft 360 kts 334°
2026-04-30 13:24 38.50964 15.06311 32766 ft 365 kts 334°
2026-04-30 13:24 38.55708 15.03887 33309 ft 369 kts 334°
2026-04-30 13:25 38.60495 15.01438 33857 ft 372 kts 334°
2026-04-30 13:25 38.65351 14.98947 34056 ft 381 kts 334°
2026-04-30 13:26 38.72907 14.95064 34069 ft 399 kts 334°
2026-04-30 13:26 38.78121 14.92381 34072 ft 409 kts 334°
2026-04-30 13:28 38.91581 14.85442 34055 ft 420 kts 334°
2026-04-30 13:28 38.99701 14.81241 34057 ft 419 kts 334°
2026-04-30 13:29 39.10500 14.75634 34058 ft 418 kts 334°
2026-04-30 13:31 39.23938 14.68632 34065 ft 416 kts 334°
2026-04-30 13:32 39.37314 14.61632 33965 ft 416 kts 334°
2026-04-30 13:32 39.42726 14.58790 32837 ft 420 kts 334°
2026-04-30 13:33 39.48156 14.55935 31830 ft 424 kts 334°
2026-04-30 13:33 39.53660 14.53037 30850 ft 430 kts 334°
2026-04-30 13:34 39.56452 14.51739 30360 ft 435 kts 340°
2026-04-30 13:34 39.65565 14.49915 28767 ft 446 kts 348°
2026-04-30 13:35 39.68644 14.49410 28240 ft 447 kts 348°
2026-04-30 13:35 39.74836 14.48351 27199 ft 450 kts 347°
2026-04-30 13:36 39.81067 14.47252 26201 ft 453 kts 347°
2026-04-30 13:36 39.84196 14.46698 25716 ft 455 kts 347°
2026-04-30 13:36 39.90484 14.45587 24765 ft 456 kts 347°
2026-04-30 13:37 39.93630 14.45032 24298 ft 456 kts 348°
2026-04-30 13:37 39.99822 14.43943 23314 ft 443 kts 347°
2026-04-30 13:38 40.05871 14.42873 22255 ft 431 kts 348°
2026-04-30 13:38 40.08817 14.42352 21738 ft 423 kts 348°
2026-04-30 13:38 40.14534 14.41338 20725 ft 408 kts 348°
2026-04-30 13:39 40.20033 14.40360 20128 ft 386 kts 348°
2026-04-30 13:39 40.25308 14.39417 19269 ft 382 kts 348°
2026-04-30 13:40 40.27931 14.38946 18800 ft 380 kts 348°
2026-04-30 13:40 40.30543 14.38477 18333 ft 377 kts 348°
2026-04-30 13:40 40.33132 14.38014 17807 ft 375 kts 348°
2026-04-30 13:40 40.35706 14.37553 17282 ft 372 kts 348°
2026-04-30 13:41 40.38267 14.37094 16773 ft 370 kts 348°
2026-04-30 13:41 40.40807 14.36639 16268 ft 368 kts 348°
2026-04-30 13:41 40.43334 14.36185 15772 ft 365 kts 348°
2026-04-30 13:41 40.45844 14.35734 15281 ft 363 kts 349°
2026-04-30 13:42 40.48339 14.35286 14796 ft 362 kts 349°
2026-04-30 13:42 40.50829 14.34838 14327 ft 359 kts 349°
2026-04-30 13:42 40.55746 14.34067 13314 ft 355 kts 359°
2026-04-30 13:43 40.58171 14.34706 12789 ft 359 kts 17°
2026-04-30 13:43 40.60350 14.36289 12273 ft 358 kts 36°
2026-04-30 13:43 40.62108 14.38485 11804 ft 348 kts 42°
2026-04-30 13:43 40.63971 14.40393 11325 ft 332 kts 22°
2026-04-30 13:44 40.66098 14.41168 11165 ft 307 kts
2026-04-30 13:44 40.68175 14.40978 10795 ft 295 kts 346°
2026-04-30 13:44 40.70061 14.40090 10429 ft 284 kts 331°
2026-04-30 13:44 40.71710 14.38713 10086 ft 276 kts 325°
2026-04-30 13:45 40.74747 14.35849 9397 ft 261 kts 324°
2026-04-30 13:45 40.76008 14.34175 9032 ft 257 kts 302°
2026-04-30 13:45 40.76585 14.31966 8704 ft 256 kts 278°
2026-04-30 13:46 40.76485 14.29629 8367 ft 256 kts 258°
2026-04-30 13:46 40.75730 14.27487 8063 ft 262 kts 239°
2026-04-30 13:46 40.74690 14.25504 7752 ft 265 kts 237°
2026-04-30 13:46 40.73617 14.23520 7439 ft 267 kts 236°
2026-04-30 13:47 40.72539 14.21527 7120 ft 267 kts 237°
2026-04-30 13:47 40.71464 14.19522 6806 ft 268 kts 236°
2026-04-30 13:47 40.70402 14.17534 6496 ft 269 kts 236°
2026-04-30 13:47 40.69325 14.15515 6147 ft 270 kts 236°
2026-04-30 13:48 40.68245 14.13490 5830 ft 270 kts 236°
2026-04-30 13:48 40.67163 14.11457 5498 ft 271 kts 236°
2026-04-30 13:48 40.66080 14.09423 5176 ft 272 kts 236°
2026-04-30 13:48 40.64993 14.07385 4861 ft 272 kts 236°
2026-04-30 13:49 40.63904 14.05344 4523 ft 273 kts 236°
2026-04-30 13:49 40.62814 14.03302 4186 ft 272 kts 235°
2026-04-30 13:49 40.61743 14.01300 4001 ft 260 kts 235°
2026-04-30 13:49 40.61044 13.99232 3956 ft 239 kts 269°
2026-04-30 13:50 40.61328 13.97213 3997 ft 218 kts 298°
2026-04-30 13:50 40.63392 13.94568 3986 ft 207 kts 342°
2026-04-30 13:50 40.64786 13.94250 3981 ft 203 kts
2026-04-30 13:51 40.66160 13.94578 3993 ft 200 kts 21°
2026-04-30 13:51 40.67326 13.95478 3982 ft 192 kts 38°
2026-04-30 13:51 40.68352 13.96580 3977 ft 188 kts 40°
2026-04-30 13:51 40.69354 13.97688 3982 ft 188 kts 40°
2026-04-30 13:52 40.70362 13.98804 3984 ft 190 kts 40°
2026-04-30 13:52 40.71384 13.99933 3874 ft 191 kts 40°
2026-04-30 13:52 40.72376 14.01029 3732 ft 180 kts 39°
2026-04-30 13:52 40.73304 14.02053 3596 ft 168 kts 40°
2026-04-30 13:53 40.74198 14.03038 3464 ft 166 kts 40°
2026-04-30 13:53 40.75077 14.04006 3335 ft 162 kts 40°
2026-04-30 13:53 40.75917 14.04960 3208 ft 156 kts 46°
2026-04-30 13:53 40.76554 14.06099 3076 ft 154 kts 55°
2026-04-30 13:54 40.77160 14.07246 3048 ft 153 kts 54°
2026-04-30 13:54 40.77775 14.08403 3002 ft 154 kts 54°
2026-04-30 13:54 40.78384 14.09545 2996 ft 152 kts 54°
2026-04-30 13:54 40.78997 14.10682 2973 ft 150 kts 52°
2026-04-30 13:55 40.79613 14.11747 2984 ft 143 kts 53°
2026-04-30 13:55 40.80196 14.12815 2993 ft 144 kts 54°
2026-04-30 13:55 40.80777 14.13909 3003 ft 147 kts 54°
2026-04-30 13:55 40.81363 14.15023 2999 ft 148 kts 55°
2026-04-30 13:56 40.81956 14.16152 2819 ft 150 kts 56°
2026-04-30 13:56 40.82527 14.17296 2615 ft 151 kts 54°
2026-04-30 13:56 40.83141 14.18408 2398 ft 150 kts 56°
2026-04-30 13:56 40.83734 14.19521 2139 ft 146 kts 53°
2026-04-30 13:57 40.84362 14.20510 1969 ft 138 kts 51°
2026-04-30 13:57 40.84978 14.21513 1701 ft 144 kts 53°
2026-04-30 13:57 40.85584 14.22573 1525 ft 144 kts 56°
2026-04-30 13:57 40.86118 14.23715 1282 ft 146 kts 60°
2026-04-30 13:58 40.86630 14.24867 1001 ft 143 kts 57°
2026-04-30 13:58 40.87675 14.27111 533 ft 141 kts 56°
2026-04-30 13:58 40.88187 14.28196 318 ft 137 kts 56°
2026-04-30 13:59 40.88668 14.29212 261 ft 110 kts 57°
2026-04-30 13:59 40.88939 14.29786 246 ft 44 kts 58°
2026-04-30 13:59 40.89064 14.30062 236 ft 16 kts 69°
2026-04-30 13:59 40.89045 14.30131 234 ft 2 kts 144°
2026-04-30 14:00 40.89035 14.30140 234 ft 2 kts 144°
2026-04-30 14:00 40.88999 14.30172 234 ft 8 kts 147°
2026-04-30 14:00 40.88946 14.30162 235 ft 9 kts 225°
2026-04-30 14:01 40.88901 14.30087 238 ft 11 kts 233°
2026-04-30 14:01 40.88853 14.30003 240 ft 13 kts 233°
2026-04-30 14:01 40.88796 14.29905 243 ft 13 kts 232°
2026-04-30 14:01 40.88732 14.29794 247 ft 16 kts 233°
2026-04-30 14:02 40.88666 14.29679 250 ft 15 kts 233°
2026-04-30 14:02 40.88602 14.29570 254 ft 15 kts 233°
2026-04-30 14:02 40.88538 14.29457 257 ft 16 kts 233°
2026-04-30 14:02 40.88474 14.29345 261 ft 15 kts 233°
2026-04-30 14:03 40.88403 14.29221 265 ft 17 kts 233°
2026-04-30 14:03 40.88331 14.29101 269 ft 16 kts 232°
2026-04-30 14:03 40.88259 14.28975 273 ft 17 kts 231°
2026-04-30 14:03 40.88187 14.28852 277 ft 17 kts 233°
2026-04-30 14:04 40.88140 14.28768 279 ft 19 kts 233°
2026-04-30 14:04 40.88061 14.28631 284 ft 18 kts 234°
2026-04-30 14:04 40.87978 14.28508 290 ft 18 kts 212°
2026-04-30 14:04 40.87939 14.28427 294 ft 9 kts 274°
2026-04-30 14:05 40.87946 14.28342 292 ft 10 kts 277°
2026-04-30 14:05 40.87954 14.28248 295 ft 10 kts 277°
2026-04-30 14:05 40.87962 14.28143 298 ft 13 kts 263°
2026-04-30 14:05 40.87915 14.28049 301 ft 12 kts 232°
2026-04-30 14:06 40.87871 14.27995 301 ft 7 kts 195°
2026-04-30 14:06 40.87814 14.28042 301 ft 0 kts 141°
2026-04-30 14:07 40.87806 14.28050 302 ft 0 kts 143°